(511) Davida
ephemeris date magn radius delta ra dec elong phase
Today19 Apr 202511.82.565 AU3.272 AU04h25m+15°55'38.6°14.1°
Opposition23 Feb 202610.62.875 AU1.917 AU10h54m+26°22'162.1°6.1°
(511) Davida - 2025-04-19
astro.vanbuitenen.nl


 
-1 year
-1 month
-1 day
Now
+1 day
+1 month
+1 year

The interactive orbit chart above shows the body's path through the solar system and its position at the given date. Green and blue lines are shown perpendicular to the ecliptic plane: Green if the path is above the ecliptic plane, blue if it is below. (Left-click and drag to rotate the view; Right-click and drag to move the view; Use scroll wheel to zoom in our out.)

The orbital elements of Davida are:

            e (Eccentricity)                : 0.1898218
            a (Semimajor axis)              : 3.1650291
            i (Inclination)                 : 15.94716
            Ω (Longitude of ascending node) : 107.55661
            ω (Argument of perihelion)      : 336.86460
            M (Mean anomaly)                : 0.08266
            Epoch                           : 2025 May 05

            L (Longitude of perihelion)     : 85.22260
            B (Latitude of perihelion)      : -6.19722
            P (Orbital period in years)     : 5.63            
        

The light curve chart below shows the estimated development of the minor planet's magnitude.


The all-sky chart below shows the path of the minor planet over the same period as the light curve. The current position is marked yellow.





The following chart shows the path of the minor planet in the next few days. The field of view is optimized for (~10x50) binoculars and finderscopes. A more printer-friendly version of the same chart can be found below.




Ephemerides:
Date       Time       RA (2000)    DEC (2000)    delta   radius  elong  phase   PA    magn
2025-04-19 00:00 UT   04 25 03.2   +15 55 16     3.272    2.565   38.6   14.1    88   11.8 
2025-04-19 21:38 UT   04 26 35.6   +16 02 22     3.279    2.565   38.1   14.0    88   11.8 
2025-04-20 00:00 UT   04 26 45.8   +16 03 09     3.280    2.565   38.1   14.0    88   11.8 
2025-04-21 00:00 UT   04 28 28.7   +16 10 57     3.288    2.565   37.5   13.8    88   11.8 
2025-04-22 00:00 UT   04 30 12.1   +16 18 40     3.296    2.565   37.0   13.6    89   11.8 
2025-04-23 00:00 UT   04 31 55.8   +16 26 19     3.303    2.565   36.4   13.5    89   11.8 
2025-04-24 00:00 UT   04 33 39.9   +16 33 52     3.311    2.565   35.9   13.3    89   11.8 
2025-04-25 00:00 UT   04 35 24.3   +16 41 20     3.318    2.565   35.3   13.1    89   11.8 
2025-04-26 00:00 UT   04 37 09.1   +16 48 43     3.326    2.565   34.8   12.9    89   11.8 
2025-04-27 00:00 UT   04 38 54.3   +16 56 01     3.333    2.564   34.3   12.8    90   11.8 
2025-04-28 00:00 UT   04 40 39.8   +17 03 14     3.340    2.564   33.7   12.6    90   11.8 
2025-04-29 00:00 UT   04 42 25.7   +17 10 21     3.347    2.564   33.2   12.4    90   11.8 
2025-04-30 00:00 UT   04 44 11.9   +17 17 24     3.354    2.564   32.6   12.2    90   11.8 
2025-05-01 00:00 UT   04 45 58.4   +17 24 20     3.361    2.564   32.1   12.1    91   11.8 
2025-05-02 00:00 UT   04 47 45.3   +17 31 12     3.368    2.564   31.6   11.9    91   11.8 
2025-05-03 00:00 UT   04 49 32.4   +17 37 58     3.375    2.564   31.0   11.7    91   11.8 
2025-05-04 00:00 UT   04 51 19.9   +17 44 39     3.381    2.564   30.5   11.5    91   11.8 
2025-05-05 00:00 UT   04 53 07.7   +17 51 14     3.388    2.564   30.0   11.3    92   11.8 
2025-05-06 00:00 UT   04 54 55.7   +17 57 44     3.394    2.564   29.4   11.2    92   11.8 
2025-05-07 00:00 UT   04 56 44.1   +18 04 08     3.401    2.564   28.9   11.0    92   11.8 
2025-05-08 00:00 UT   04 58 32.7   +18 10 27     3.407    2.564   28.4   10.8    92   11.8 


    Terminology:
            
    delta:  distance between minor planet and earth in AU
    radius: distance between minor planet and sun in AU
    magn:   magnitude (brightness) estimate    
    ra:     right ascension in hours (24h = 360deg)
    dec:    declination in degrees
    elong:  elongation in degrees (angle sun-earth-minor planet)    
    phase:  phase angle in degrees (angle sun-minor planet-earth)        
    AU:     Astronomical Unit (mean distance between earth and sun: 149597870.7 km
    

Orbital elements provided by the MPC (Minor Planet Center).
Calculations by a modified version of AAPlus, a C# implementation of the AA+ project by PJ Naughter from the algorithms presented in the book "Astronomical Algorithms" by Jean Meeus.
NGC2000 dso catalog and star labels from VizieR as provided by the Strasbourg astronomical Data Center.
Tycho2 catalog from the ESO archive.